This is the latest recevied weather packets stored in our database for station/object N4RCT. If no packets are shown the sender has not sent any weather packets the latest 10 day(s).
| Time | Temp. | Humidity | Pressure | Rain* | Wind** | Luminosity | Snow |
|---|---|---|---|---|---|---|---|
| 1777714361 | 12.78° C | 63% | 1011.8 hPa | 0 mm | - | 0 W/m² | - |
| 1777714059 | 12.78° C | 64% | 1012.2 hPa | 0 mm | - | 0 W/m² | - |
| 1777713757 | 12.78° C | 62% | 1012.1 hPa | 0 mm | - | 0 W/m² | - |
| 1777713453 | 12.78° C | 67% | 1012.1 hPa | 0 mm | - | 0 W/m² | - |
| 1777713150 | 12.78° C | 62% | 1011.7 hPa | 0 mm | - | 0 W/m² | - |
| 1777712847 | 12.78° C | 62% | 1011.3 hPa | 0 mm | - | 0 W/m² | - |
| 1777712543 | 12.78° C | 61% | 1011.5 hPa | 0 mm | - | 0 W/m² | - |
| 1777712241 | 12.78° C | 65% | 1011.7 hPa | 0 mm | - | 0 W/m² | - |
| 1777711937 | 12.78° C | 64% | 1011.9 hPa | 0 mm | - | 0 W/m² | - |
| 1777711635 | 12.78° C | 65% | 1012.1 hPa | 0 mm | - | 0 W/m² | - |
| 1777711329 | 12.78° C | 62% | 1012 hPa | 0 mm | - | 0 W/m² | - |
| 1777711026 | 12.78° C | 65% | 1011.6 hPa | 0 mm | - | 0 W/m² | - |
| 1777710723 | 12.78° C | 66% | 1011.8 hPa | 0 mm | - | 0 W/m² | - |
| 1777710420 | 12.78° C | 68% | 1011.4 hPa | 0 mm | - | 0 W/m² | - |
| 1777710116 | 13.33° C | 63% | 1011.4 hPa | 0 mm | - | 0 W/m² | - |
| 1777709814 | 13.33° C | 65% | 1011.6 hPa | 0 mm | - | 0 W/m² | - |
| 1777709511 | 13.33° C | 64% | 1011.7 hPa | 0 mm | - | 0 W/m² | - |
| 1777709209 | 13.33° C | 65% | 1011.6 hPa | 0 mm | - | 0 W/m² | - |
| 1777708906 | 13.33° C | 66% | 1011.8 hPa | 0 mm | - | 0 W/m² | - |
| 1777708604 | 13.33° C | 66% | 1011.7 hPa | 0 mm | - | 0 W/m² | - |
| 1777708301 | 13.33° C | 70% | 1011.7 hPa | 0 mm | - | 0 W/m² | - |
| 1777707999 | 13.33° C | 73% | 1011.9 hPa | 0 mm | - | 0 W/m² | - |
| 1777707696 | 13.33° C | 66% | 1012.1 hPa | 0 mm | - | 0 W/m² | - |
| 1777707392 | 13.33° C | 67% | 1012.1 hPa | 0 mm | - | 0 W/m² | - |
| 1777707088 | 13.89° C | 66% | 1011.8 hPa | 0 mm | - | 0 W/m² | - |
* Rain latest hour (hover to see other rain measurements)
** Current wind speed in m/s (hover to see current wind gust speed)